Regional Weather Roundup
Issued by NWS Grand Forks, ND

Home | Current Version | Previous Version | Text Only | Print | Product List | Glossary Off
Versions: 1 2 3 4 5 6 7 8 9 10 11 12 13 14 15 16 17 18 19 20 21 22 23 24 25 26 27 28 29 30 31 32 33 34 35 36 37 38 39 40 41 42 43 44 45 46 47 48 49 50

532
ASUS43 KFGF 230031
RWRFGF
PRAIRIE TO PINES  WEATHER ROUNDUP
NATIONAL WEATHER SERVICE EASTERN NORTH DAKOTA/GRAND FORKS ND
700 PM CDT WED MAR 22 2017

 **SATELLITE DATA USED TO AUGMENT SKY COVER AT AUTOMATED STATIONS**
 *****  WEATHER ACROSS EASTERN NORTH DAKOTA  *****

CITY           SKY/WX    TMP DP  RH WIND       PRES   REMARKS
GRAND FORKS    CLOUDY    30  17  58 SE21      30.13F WCI  17
6HR MIN TEMP:  30; 6HR MAX TEMP:  32; 6HR PCP: TRACE;

GRAND FRKS AFB CLOUDY    29  20  68 SE17G25   30.12F WCI  18
DEVILS LAKE    FAIR      29  23  78 SE24      29.99F WCI  15
6HR MIN TEMP:  27; 6HR MAX TEMP:  31;

FARGO          CLOUDY    33  22  63 SE23G32   30.14F WCI  21
WAHPETON ARPT  CLOUDY    32  23  69 SE23      30.14F WCI  19
$$

 ***** WEATHER ACROSS CENTRAL AND WESTERN NORTH DAKOTA  *****

CITY           SKY/WX    TMP DP  RH WIND       PRES   REMARKS
BISMARCK       FAIR      44  31  60 SE22      29.88F
6HR MIN TEMP:  39; 6HR MAX TEMP:  49;

MINOT          FAIR      40  30  67 SE15      29.86S
6HR MIN TEMP:  35; 6HR MAX TEMP:  42;

JAMESTOWN      CLOUDY    32  26  78 SE16      30.02F WCI  21
6HR MIN TEMP:  30; 6HR MAX TEMP:  34; 6HR PCP: TRACE;

MINOT AFB      FAIR      38  31  76 SE13      29.86S
GARRISON         N/A     40  32  73 SE15      29.84S
WILLISTON      FAIR      52  32  46 SE8       29.78S
6HR MIN TEMP:  39; 6HR MAX TEMP:  52;

DICKINSON      FAIR      54  36  50 S8        29.76F
6HR MIN TEMP:  41; 6HR MAX TEMP:  55;

HETTINGER      FAIR      58  37  45 SE6       29.79S
6HR MIN TEMP:  46; 6HR MAX TEMP:  60;

$$

 *****  OTHER AIRPORT OBSERVATIONS IN OUR AREA  *****

CITY           SKY/WX    TMP DP  RH WIND       PRES   REMARKS
WALHALLA       NOT AVBL
GRAFTON AIRPOR CLOUDY    28  25  86 SE23G32   30.14F WCI  14
VALLEY CITY AR FLURRIES  30  28  93 SE18G25   30.08F WCI  18
CANDO          NOT AVBL
CAVALIER APRT  NOT AVBL
GWINNER        CLOUDY    34  25  69 MISG      30.09S
SHEYENNE NWR     N/A     32  23  68 S17       29.95S WCI  21
ROLLA          CLOUDY    28  25  86 S24G32    29.94S WCI  14
 ***** THE ABOVE OBSERVATIONS ARE NON NWS ARE NOT QUALITY
       CONTROLLED AND MAY MIS-REPORT RAIN FOR SNOW...
$$

  *****  WEATHER ACROSS NORTHERN MINNESOTA  *****

CITY           SKY/WX    TMP DP  RH WIND       PRES   REMARKS
FLAG ISLAND    CLOUDY    30  16  55 SE10      30.20F WCI  21
WARROAD        CLOUDY    34  12  40 S9        30.20F
ROSEAU         CLOUDY    34  16  47 S12       30.19S
HALLOCK        CLOUDY    30  25  80 SE21G29   30.13F WCI  17
THF RVR FALLS    N/A    N/A N/A N/A MISG        N/A
BAUDETTE       CLOUDY    34  10  37 S10       30.21F
6HR MIN TEMP:  29; 6HR MAX TEMP:  35;

WASKISH        CLOUDY    34   9  35 SE7G16    30.22F
CROOKSTON      CLOUDY    30  21  69 S21G26    30.16F WCI  17
STEPHEN NDAWN    N/A     30  21  69 S20         N/A  WCI  18
GREENBUSH NDAW   N/A     30  21  69 SE12        N/A  WCI  21
$$
  *****  WEATHER ACROSS CENTRAL AND WEST MINNESOTA  *****

CITY           SKY/WX    TMP DP  RH WIND       PRES   REMARKS
FOSSTON        LGT SNOW  30  18  59 SE17G23   30.17F WCI  18
BEMIDJI        CLOUDY    33  12  42 S13G21    30.20F WCI  23
PARK RAPIDS    CLOUDY    33   9  36 S23G29    30.22F WCI  21
6HR MIN TEMP:  31; 6HR MAX TEMP:  36;

ELBOW LAKE     CLOUDY    32  23  68 E20G32    30.19F WCI  20
6HR MIN TEMP:  29; 6HR MAX TEMP:  32;

WADENA         CLOUDY    30  18  59 SE15G23   30.22F WCI  19
DETROIT LAKES  MOCLDY    32  19  59 SE22G30   30.17F WCI  19
MOORHEAD       CLOUDY    32  21  64 SE23G31   30.15F WCI  19
FERGUS FALLS   CLOUDY    32  21  64 SE22G29   30.21F WCI  19
MORRIS MN      CLOUDY    34  25  69 SE25G31   30.18F WCI  21
STAPLES        MOCLDY    32  12  43 SE6       30.24F
$$
  *****  WEATHER ELSEWHERE ACROSS MINNESOTA  *****

CITY           SKY/WX    TMP DP  RH WIND       PRES   REMARKS
DULUTH         FAIR      26  17  68 SE13      30.33F WCI  15
6HR MIN TEMP:  26; 6HR MAX TEMP:  33;

INTRNTL FALLS  CLOUDY    34   7  32 S9        30.25F
6HR MIN TEMP:  27; 6HR MAX TEMP:  35;

ELY            FAIR      30   9  40 SE6       30.31F WCI  24
CLOQUET        MOCLDY    28  16  59 E8        30.32F WCI  20
WHEATON        CLOUDY    34  25  69 SE26      30.16F WCI  21
BRAINERD       CLOUDY    34   7  32 S12       30.29F
6HR MIN TEMP:  32; 6HR MAX TEMP:  38; 6HR PCP: TRACE;

HIBBING        FAIR      32   5  32 S8        30.29F WCI  25
6HR MIN TEMP:  27; 6HR MAX TEMP:  35;

ALEXANDRIA     CLOUDY    32  20  61 SE21G28   30.23F WCI  20
6HR MIN TEMP:  29; 6HR MAX TEMP:  34;

SAINT CLOUD    CLOUDY    35  16  45 S12       30.30F
6HR MIN TEMP:  33; 6HR MAX TEMP:  36;

MINNEAPOLIS    CLOUDY    38  12  34 S10       30.36F
6HR MIN TEMP:  34; 6HR MAX TEMP:  40;

$$

  *****  WEATHER ACROSS SOUTH DAKOTA  *****

CITY           SKY/WX    TMP DP  RH WIND       PRES   REMARKS
SIOUX FALLS    CLOUDY    39  25  57 SE20G29   30.14F
6HR MIN TEMP:  32; 6HR MAX TEMP:  39; 6HR PCP: TRACE;

BROOKINGS      CLOUDY    35  24  64 SE21G32   30.11F WCI  24
WATERTOWN      CLOUDY    34  22  61 SE20G29   30.08F WCI  23
6HR MIN TEMP:  30; 6HR MAX TEMP:  34;

HURON          MOCLDY    39  25  57 SE21G32   30.04S
6HR MIN TEMP:  31; 6HR MAX TEMP:  39;

SISSETON         N/A     33  27  78 S29G35    30.11F WCI  19
ABERDEEN       CLOUDY    36  23  59 S15       30.06F
6HR MIN TEMP:  32; 6HR MAX TEMP:  36;

MITCHELL       FAIR      42  25  50 SE25G37   30.06F
PIERRE         FAIR      53  30  41 SE26G33   29.86S
6HR MIN TEMP:  44; 6HR MAX TEMP:  56;

MOBRIDGE       FAIR      48  30  49 SE22G32   29.86F
RAPID CITY     FAIR      61  40  45 N12       29.77S
6HR MIN TEMP:  57; 6HR MAX TEMP:  65;

$$

  *****  SOME WEATHER IN NEARBY STATES *****

CITY           SKY/WX    TMP DP  RH WIND       PRES   REMARKS
GLASGOW MT     FAIR      58  37  45 SE8       29.72F
6HR MIN TEMP:  43; 6HR MAX TEMP:  60;

GREAT FALLS MT FAIR      58  21  24 W14       29.74S
6HR MIN TEMP:  57; 6HR MAX TEMP:  62;

CHEYENNE WY    FAIR      63  29  27 S12       29.87F
6HR MIN TEMP:  58; 6HR MAX TEMP:  68;

SCOTTSBLUFF NE FAIR      68  34  28 SE15      29.80F
6HR MIN TEMP:  55; 6HR MAX TEMP:  72;

OMAHA NE       CLOUDY    49  24  37 SE22      30.19F
6HR MIN TEMP:  45; 6HR MAX TEMP:  51;

DES MOINES IA  CLOUDY    45  22  40 E14G21    30.31F
6HR MIN TEMP:  40; 6HR MAX TEMP:  46;

DAVENPORT IA   FAIR      40  19  43 SE12      30.43F
6HR MIN TEMP:  38; 6HR MAX TEMP:  44;

CHICAGO IL     MOCLDY    31  17  56 NE9       30.50F WCI  23
6HR MIN TEMP:  31; 6HR MAX TEMP:  37;

EAU CLAIRE WI  FAIR      37   6  27 SE9       30.38F
6HR MIN TEMP:  32; 6HR MAX TEMP:  39;

LA CROSSE WI   FAIR      41  10  28 S9        30.42F
6HR MIN TEMP:  36; 6HR MAX TEMP:  43;

$$

  *****  SOME NATIONAL WEATHER *****

CITY           SKY/WX    TMP DP  RH WIND       PRES   REMARKS
LA GUARDIA NY  FAIR      31  -2  24 N23G30    30.34R WCI  18
6HR MIN TEMP:  31; 6HR MAX TEMP:  36;

RALEIGH NC     FAIR      50  13  22 E9        30.29R
6HR MIN TEMP:  50; 6HR MAX TEMP:  64;

ATLANTA GA     MOCLDY    61  37  41 NW9       30.19R
6HR MIN TEMP:  59; 6HR MAX TEMP:  68; 6HR PCP: TRACE;

NEW ORLEANS LA MOCLDY    78  59  51 CALM      30.12R
6HR MIN TEMP:  75; 6HR MAX TEMP:  83;

OKLAHOMA CITY  CLOUDY    67  55  65 SE15      30.05R
6HR MIN TEMP:  67; 6HR MAX TEMP:  74;

ALBUQUERQUE NM PTSUNNY   79   5   6 S32G39    29.90F
6HR MIN TEMP:  70; 6HR MAX TEMP:  82;

SALT LAKE CITY CLOUDY    56  43  61 NE14      29.77F
6HR MIN TEMP:  55; 6HR MAX TEMP:  62; 6HR PCP:  0.08;

LOS ANGELES CA FAIR      63  55  75 W26       29.96F
6HR MIN TEMP:  61; 6HR MAX TEMP:  65;

BOISE ID       FAIR



USA.gov is the U.S. government's official web portal to all federal, state and local government web resources and services.